Regional Weather Roundup
Issued by NWS Goodland, KS

Home | Current Version | Previous Version | Graphics & Text | Print | Product List | Glossary On
Versions: 1 2 3 4 5 6 7 8 9 10 11 12 13 14 15 16 17 18 19 20 21 22 23 24 25 26 27 28 29 30 31 32 33 34 35 36 37 38 39 40 41 42 43 44 45 46 47 48 49 50
000
ASUS43 KGLD 262308
RWRGLD

GOODLAND FORECAST AREA HOURLY WEATHER ROUNDUP
NATIONAL WEATHER SERVICE GOODLAND KS
500 PM MDT THU MAR 26 2015

...OFFICIAL OBSERVATIONS...

CITY           SKY/WX    TMP DP  RH WIND       PRES   REMARKS
GOODLAND KS    CLOUDY    57  25  29 N22G30    30.08R
HILL CITY KS   PTSUNNY   62  27  26 NW28G35   30.02R
IMPERIAL NEB     N/A     57  29  34 NW26G37   30.08R
MCCOOK NEB     CLOUDY    60  23  24 N30G36    30.03R
AKRON CO       CLOUDY    54  25  32 N16G30    30.10S
BURLINGTON CO  CLOUDY    58  23  26 N21G28    30.10S
LIMON CO       MOSUNNY   55  22  27 N24       30.13S
$$

...UNOFFICIAL OBSERVATIONS...

CITY           SKY/WX    TMP DP  RH WIND       PRES   REMARKS
COLBY KS       CLOUDY    61  34  36 NW21G30   30.07S
GOVE KS          N/A     61  32  33 MISG        N/A
LENORA KS        N/A     59  32  36 MISG        N/A
NORTON KS      PTSUNNY   59  19  21 NW25G32   30.01R
SHARON SPRINGS   N/A     60  27  28 N21G29      N/A
TRIBUNE KS     MOSUNNY   63  36  36 NW22      30.10F
KIT CARSON CO    N/A     59  27  29 MISG        N/A
YUMA CO          N/A     55  24  30 N20G26      N/A
$$



USA.gov is the U.S. government's official web portal to all federal, state and local government web resources and services.